Time,TemperatureF,DewpointF,PressureIn,WindDirection,WindDirectionDegrees,WindSpeedMPH,WindSpeedGustMPH,Humidity,HourlyPrecipIn,Conditions,Clouds,dailyrainin,SoftwareType,DateUTC
2013-01-08 00:03:00,26.0,18.0,30.14,SSE,155,3.0,12.0,72,0.00,,,0.00,,2013-01-08 05:03:00,
2013-01-08 00:12:00,26.0,18.0,30.14,SSE,155,3.0,12.0,72,0.00,,,0.00,,2013-01-08 05:12:00,
2013-01-08 00:22:00,26.0,18.0,30.14,ESE,119,4.0,8.0,72,0.00,,,0.00,,2013-01-08 05:22:00,
2013-01-08 00:33:00,25.0,18.0,30.13,SE,125,4.0,7.0,73,0.00,,,0.00,,2013-01-08 05:33:00,
2013-01-08 00:42:00,25.0,18.0,30.13,SE,125,4.0,7.0,73,0.00,,,0.00,,2013-01-08 05:42:00,
2013-01-08 00:53:00,26.0,19.0,30.13,SSW,201,5.0,15.0,73,0.00,,,0.00,,2013-01-08 05:53:00,
2013-01-08 01:02:00,27.0,19.0,30.13,SSE,162,6.0,10.0,72,0.00,,,0.00,,2013-01-08 06:02:00,
2013-01-08 01:12:00,27.0,19.0,30.13,SSE,162,6.0,10.0,72,0.00,,,0.00,,2013-01-08 06:12:00,
2013-01-08 01:22:00,28.0,20.0,30.13,SSW,192,4.0,12.0,71,0.00,,,0.00,,2013-01-08 06:22:00,
2013-01-08 01:33:00,28.0,20.0,30.12,SSW,192,6.0,12.0,70,0.00,,,0.00,,2013-01-08 06:33:00,
2013-01-08 01:42:00,28.0,20.0,30.12,SSW,192,6.0,12.0,70,0.00,,,0.00,,2013-01-08 06:42:00,
2013-01-08 01:53:00,28.0,20.0,30.13,SSE,162,6.0,10.0,70,0.00,,,0.00,,2013-01-08 06:53:00,
2013-01-08 02:02:00,28.0,20.0,30.13,SW,228,5.0,13.0,70,0.00,,,0.00,,2013-01-08 07:02:00,
2013-01-08 02:12:00,28.0,20.0,30.13,SW,228,5.0,13.0,70,0.00,,,0.00,,2013-01-08 07:12:00,
2013-01-08 02:22:00,28.0,20.0,30.14,SSW,206,6.0,8.0,70,0.00,,,0.00,,2013-01-08 07:22:00,
2013-01-08 02:32:00,28.0,20.0,30.14,South,179,6.0,13.0,70,0.00,,,0.00,,2013-01-08 07:32:00,
2013-01-08 02:42:00,28.0,20.0,30.14,South,179,6.0,13.0,70,0.00,,,0.00,,2013-01-08 07:42:00,
2013-01-08 02:52:00,27.0,19.0,30.14,South,188,4.0,10.0,71,0.00,,,0.00,,2013-01-08 07:52:00,
2013-01-08 03:02:00,27.0,19.0,30.14,SSW,195,5.0,13.0,72,0.00,,,0.00,,2013-01-08 08:02:00,
2013-01-08 03:12:00,27.0,19.0,30.14,SSW,195,5.0,13.0,72,0.00,,,0.00,,2013-01-08 08:12:00,
2013-01-08 03:22:00,28.0,20.0,30.12,SW,222,4.0,13.0,71,0.00,,,0.00,,2013-01-08 08:22:00,
2013-01-08 03:32:00,28.0,20.0,30.14,SW,230,4.0,15.0,71,0.00,,,0.00,,2013-01-08 08:32:00,
2013-01-08 03:42:00,28.0,20.0,30.14,SW,230,4.0,15.0,71,0.00,,,0.00,,2013-01-08 08:42:00,
2013-01-08 03:53:00,28.0,20.0,30.14,SSW,199,4.0,11.0,70,0.00,,,0.00,,2013-01-08 08:53:00,
2013-01-08 04:02:00,28.0,20.0,30.13,SSW,194,3.0,8.0,70,0.00,,,0.00,,2013-01-08 09:02:00,
2013-01-08 04:12:00,27.0,19.0,30.12,South,183,5.0,10.0,70,0.00,,,0.00,,2013-01-08 09:12:00,
2013-01-08 04:22:00,27.0,19.0,30.12,South,183,5.0,10.0,70,0.00,,,0.00,,2013-01-08 09:22:00,
2013-01-08 04:32:00,27.0,19.0,30.12,SSE,163,6.0,10.0,70,0.00,,,0.00,,2013-01-08 09:32:00,
2013-01-08 04:42:00,27.0,19.0,30.12,SSE,163,6.0,10.0,70,0.00,,,0.00,,2013-01-08 09:42:00,
2013-01-08 04:52:00,27.0,19.0,30.12,SSE,156,4.0,9.0,70,0.00,,,0.00,,2013-01-08 09:52:00,
2013-01-08 05:02:00,27.0,19.0,30.12,South,190,6.0,9.0,70,0.00,,,0.00,,2013-01-08 10:02:00,
2013-01-08 05:12:00,27.0,19.0,30.12,South,190,6.0,9.0,70,0.00,,,0.00,,2013-01-08 10:12:00,
2013-01-08 05:22:00,27.0,19.0,30.12,South,178,4.0,9.0,70,0.00,,,0.00,,2013-01-08 10:22:00,
2013-01-08 05:32:00,28.0,19.0,30.11,South,183,6.0,11.0,69,0.00,,,0.00,,2013-01-08 10:32:00,
2013-01-08 05:42:00,28.0,19.0,30.11,South,183,6.0,11.0,69,0.00,,,0.00,,2013-01-08 10:42:00,
2013-01-08 05:52:00,27.0,18.0,30.13,SSE,151,4.0,6.0,68,0.00,,,0.00,,2013-01-08 10:52:00,
2013-01-08 06:02:00,27.0,18.0,30.12,South,185,5.0,11.0,69,0.00,,,0.00,,2013-01-08 11:02:00,
2013-01-08 06:12:00,27.0,18.0,30.12,South,185,5.0,11.0,69,0.00,,,0.00,,2013-01-08 11:12:00,
2013-01-08 06:22:00,27.0,18.0,30.12,SSE,151,3.0,12.0,69,0.00,,,0.00,,2013-01-08 11:22:00,
2013-01-08 06:33:00,26.0,18.0,30.13,SSE,166,3.0,7.0,70,0.00,,,0.00,,2013-01-08 11:33:00,
2013-01-08 06:42:00,26.0,18.0,30.13,SSE,166,3.0,7.0,70,0.00,,,0.00,,2013-01-08 11:42:00,
2013-01-08 06:53:00,27.0,19.0,30.13,SSE,160,4.0,9.0,70,0.00,,,0.00,,2013-01-08 11:53:00,
2013-01-08 07:03:00,27.0,18.0,30.14,SE,130,3.0,7.0,69,0.00,,,0.00,,2013-01-08 12:03:00,
2013-01-08 07:12:00,27.0,18.0,30.14,SE,130,3.0,7.0,69,0.00,,,0.00,,2013-01-08 12:12:00,
2013-01-08 07:22:00,26.0,17.0,30.15,ESE,122,4.0,7.0,69,0.00,,,0.00,,2013-01-08 12:22:00,
2013-01-08 07:33:00,25.0,16.0,30.16,South,178,4.0,15.0,69,0.00,,,0.00,,2013-01-08 12:33:00,
2013-01-08 07:42:00,25.0,16.0,30.16,South,178,4.0,15.0,69,0.00,,,0.00,,2013-01-08 12:42:00,
2013-01-08 07:53:00,26.0,18.0,30.15,ESE,119,3.0,7.0,70,0.00,,,0.00,,2013-01-08 12:53:00,
2013-01-08 08:03:00,26.0,17.0,30.16,South,174,5.0,11.0,69,0.00,,,0.00,,2013-01-08 13:03:00,
2013-01-08 08:12:00,26.0,17.0,30.16,South,174,5.0,11.0,69,0.00,,,0.00,,2013-01-08 13:12:00,
2013-01-08 08:22:00,27.0,18.0,30.16,ESE,120,3.0,9.0,69,0.00,,,0.00,,2013-01-08 13:22:00,
2013-01-08 08:33:00,27.0,18.0,30.16,South,177,3.0,8.0,69,0.00,,,0.00,,2013-01-08 13:33:00,
2013-01-08 08:43:00,27.0,18.0,30.16,South,177,3.0,8.0,69,0.00,,,0.00,,2013-01-08 13:43:00,
2013-01-08 08:53:00,28.0,19.0,30.18,SE,139,3.0,6.0,68,0.00,,,0.00,,2013-01-08 13:53:00,
2013-01-08 09:02:00,28.0,18.0,30.19,SSW,206,2.0,10.0,67,0.00,,,0.00,,2013-01-08 14:02:00,
2013-01-08 09:12:00,28.0,18.0,30.19,SSW,206,2.0,10.0,67,0.00,,,0.00,,2013-01-08 14:12:00,
2013-01-08 09:23:00,29.0,19.0,30.18,ESE,120,2.0,9.0,67,0.00,,,0.00,,2013-01-08 14:23:00,
2013-01-08 09:33:00,30.0,20.0,30.18,SE,128,3.0,8.0,66,0.00,,,0.00,,2013-01-08 14:33:00,
2013-01-08 09:43:00,30.0,20.0,30.18,SE,128,3.0,8.0,66,0.00,,,0.00,,2013-01-08 14:43:00,
2013-01-08 09:53:00,32.0,21.0,30.20,SE,141,3.0,6.0,64,0.00,,,0.00,,2013-01-08 14:53:00,
2013-01-08 10:03:00,33.0,22.0,30.20,SW,215,2.0,6.0,63,0.00,,,0.00,,2013-01-08 15:03:00,
2013-01-08 10:12:00,33.0,22.0,30.20,SW,215,2.0,6.0,63,0.00,,,0.00,,2013-01-08 15:12:00,
2013-01-08 10:22:00,35.0,23.0,30.20,SE,143,3.0,6.0,61,0.00,,,0.00,,2013-01-08 15:22:00,
2013-01-08 10:33:00,36.0,23.0,30.21,SW,229,4.0,8.0,59,0.00,,,0.00,,2013-01-08 15:33:00,
2013-01-08 10:43:00,36.0,23.0,30.21,SW,229,4.0,8.0,59,0.00,,,0.00,,2013-01-08 15:43:00,
2013-01-08 10:53:00,37.0,24.0,30.21,WSW,247,0.0,9.0,58,0.00,,,0.00,,2013-01-08 15:53:00,
2013-01-08 11:03:00,37.0,23.0,30.21,NNW,337,3.0,3.0,56,0.00,,,0.00,,2013-01-08 16:03:00,
2013-01-08 11:12:00,37.0,23.0,30.21,NNW,337,3.0,3.0,56,0.00,,,0.00,,2013-01-08 16:12:00,
2013-01-08 11:23:00,38.0,24.0,30.20,WSW,247,0.0,3.0,56,0.00,,,0.00,,2013-01-08 16:23:00,
2013-01-08 11:34:00,39.0,24.0,30.20,West,270,2.0,6.0,54,0.00,,,0.00,,2013-01-08 16:34:00,
2013-01-08 11:42:00,39.0,24.0,30.20,West,270,2.0,6.0,54,0.00,,,0.00,,2013-01-08 16:42:00,
2013-01-08 11:53:00,40.0,24.0,30.22,NNW,337,1.0,3.0,53,0.00,,,0.00,,2013-01-08 16:53:00,
2013-01-08 12:03:00,40.0,23.0,30.20,NW,310,2.0,3.0,51,0.00,,,0.00,,2013-01-08 17:03:00,
2013-01-08 12:13:00,40.0,23.0,30.20,NW,310,2.0,3.0,51,0.00,,,0.00,,2013-01-08 17:13:00,
2013-01-08 12:23:00,41.0,24.0,30.20,West,270,0.0,3.0,51,0.00,,,0.00,,2013-01-08 17:23:00,
2013-01-08 12:34:00,41.0,24.0,30.20,West,270,2.0,4.0,50,0.00,,,0.00,,2013-01-08 17:34:00,
2013-01-08 12:43:00,41.0,24.0,30.20,West,270,2.0,4.0,50,0.00,,,0.00,,2013-01-08 17:43:00,
2013-01-08 12:54:00,41.0,24.0,30.21,WSW,247,0.0,3.0,50,0.00,,,0.00,,2013-01-08 17:54:00,
2013-01-08 13:03:00,41.0,24.0,30.21,SSW,211,2.0,4.0,50,0.00,,,0.00,,2013-01-08 18:03:00,
2013-01-08 13:13:00,41.0,24.0,30.21,SSW,211,2.0,4.0,50,0.00,,,0.00,,2013-01-08 18:13:00,
2013-01-08 13:23:00,41.0,23.0,30.20,SW,225,2.0,4.0,49,0.00,,,0.00,,2013-01-08 18:23:00,
2013-01-08 13:33:00,41.0,23.0,30.20,WSW,247,0.0,3.0,48,0.00,,,0.00,,2013-01-08 18:33:00,
2013-01-08 13:43:00,41.0,23.0,30.20,WSW,247,0.0,3.0,48,0.00,,,0.00,,2013-01-08 18:43:00,
2013-01-08 13:53:00,40.0,22.0,30.21,SW,225,3.0,5.0,49,0.00,,,0.00,,2013-01-08 18:53:00,
2013-01-08 14:03:00,41.0,22.0,30.20,WSW,238,3.0,5.0,47,0.00,,,0.00,,2013-01-08 19:03:00,
2013-01-08 14:12:00,41.0,22.0,30.20,WSW,238,3.0,5.0,47,0.00,,,0.00,,2013-01-08 19:12:00,
2013-01-08 14:23:00,41.0,22.0,30.21,SW,216,2.0,5.0,47,0.00,,,0.00,,2013-01-08 19:23:00,
2013-01-08 14:33:00,41.0,22.0,30.21,SSW,193,3.0,5.0,46,0.00,,,0.00,,2013-01-08 19:33:00,
2013-01-08 14:42:00,41.0,22.0,30.21,SSW,193,3.0,5.0,46,0.00,,,0.00,,2013-01-08 19:42:00,
2013-01-08 14:53:00,39.0,21.0,30.20,South,173,4.0,8.0,48,0.00,,,0.00,,2013-01-08 19:53:00,
2013-01-08 15:03:00,38.0,20.0,30.20,NE,45,0.0,4.0,48,0.00,,,0.00,,2013-01-08 20:03:00,
2013-01-08 15:12:00,38.0,20.0,30.20,NE,45,0.0,4.0,48,0.00,,,0.00,,2013-01-08 20:12:00,
2013-01-08 15:23:00,37.0,20.0,30.21,SSE,157,2.0,7.0,49,0.00,,,0.00,,2013-01-08 20:23:00,
2013-01-08 15:33:00,38.0,21.0,30.22,SW,216,4.0,7.0,50,0.00,,,0.00,,2013-01-08 20:33:00,
2013-01-08 15:43:00,38.0,21.0,30.22,SW,216,4.0,7.0,50,0.00,,,0.00,,2013-01-08 20:43:00,
2013-01-08 15:54:00,38.0,21.0,30.22,WSW,238,3.0,4.0,50,0.00,,,0.00,,2013-01-08 20:54:00,
2013-01-08 16:03:00,38.0,21.0,30.22,WSW,247,0.0,3.0,50,0.00,,,0.00,,2013-01-08 21:03:00,
2013-01-08 16:13:00,38.0,21.0,30.22,WSW,247,0.0,3.0,50,0.00,,,0.00,,2013-01-08 21:13:00,
2013-01-08 16:23:00,36.0,19.0,30.22,SW,225,0.0,0.0,50,0.00,,,0.00,,2013-01-08 21:23:00,
2013-01-08 16:33:00,34.0,18.0,30.23,SW,225,2.0,3.0,52,0.00,,,0.00,,2013-01-08 21:33:00,
2013-01-08 16:43:00,34.0,18.0,30.23,SW,225,2.0,3.0,52,0.00,,,0.00,,2013-01-08 21:43:00,
2013-01-08 16:53:00,34.0,19.0,30.23,West,270,0.0,0.0,53,0.00,,,0.00,,2013-01-08 21:53:00,
2013-01-08 17:03:00,32.0,17.0,30.22,WSW,249,1.0,3.0,54,0.00,,,0.00,,2013-01-08 22:03:00,
2013-01-08 17:12:00,32.0,17.0,30.22,WSW,249,1.0,3.0,54,0.00,,,0.00,,2013-01-08 22:12:00,
2013-01-08 17:23:00,32.0,18.0,30.22,WSW,247,0.0,0.0,56,0.00,,,0.00,,2013-01-08 22:23:00,
2013-01-08 17:33:00,31.0,18.0,30.22,SE,135,1.0,3.0,57,0.00,,,0.00,,2013-01-08 22:33:00,
2013-01-08 17:43:00,31.0,18.0,30.22,SE,135,1.0,3.0,57,0.00,,,0.00,,2013-01-08 22:43:00,
2013-01-08 17:53:00,31.0,18.0,30.22,SE,141,2.0,4.0,58,0.00,,,0.00,,2013-01-08 22:53:00,
2013-01-08 18:02:00,30.0,17.0,30.23,ESE,112,0.0,0.0,59,0.00,,,0.00,,2013-01-08 23:02:00,
2013-01-08 18:13:00,30.0,17.0,30.23,ESE,112,0.0,0.0,59,0.00,,,0.00,,2013-01-08 23:13:00,
2013-01-08 18:22:00,31.0,18.0,30.23,SE,135,0.0,1.0,59,0.00,,,0.00,,2013-01-08 23:22:00,
2013-01-08 18:33:00,30.0,17.0,30.23,SE,135,0.0,0.0,59,0.00,,,0.00,,2013-01-08 23:33:00,
2013-01-08 18:43:00,30.0,17.0,30.23,SE,135,0.0,0.0,59,0.00,,,0.00,,2013-01-08 23:43:00,
2013-01-08 18:53:00,31.0,19.0,30.23,SE,135,0.0,2.0,60,0.00,,,0.00,,2013-01-08 23:53:00,
2013-01-08 19:03:00,30.0,18.0,30.23,ESE,112,0.0,0.0,60,0.00,,,0.00,,2013-01-09 00:03:00,
2013-01-08 19:12:00,30.0,18.0,30.23,ESE,112,0.0,0.0,60,0.00,,,0.00,,2013-01-09 00:12:00,
2013-01-08 19:22:00,30.0,18.0,30.23,ESE,112,3.0,3.0,61,0.00,,,0.00,,2013-01-09 00:22:00,
2013-01-08 19:33:00,30.0,19.0,30.24,SE,135,0.0,2.0,62,0.00,,,0.00,,2013-01-09 00:33:00,
2013-01-08 19:43:00,30.0,19.0,30.24,SE,135,0.0,2.0,62,0.00,,,0.00,,2013-01-09 00:43:00,
2013-01-08 19:53:00,30.0,19.0,30.23,ESE,112,0.0,0.0,62,0.00,,,0.00,,2013-01-09 00:53:00,
2013-01-08 20:02:00,30.0,19.0,30.23,ESE,112,0.0,2.0,62,0.00,,,0.00,,2013-01-09 01:02:00,
2013-01-08 20:12:00,30.0,19.0,30.23,ESE,112,0.0,2.0,62,0.00,,,0.00,,2013-01-09 01:12:00,
2013-01-08 20:22:00,29.0,18.0,30.23,SE,135,1.0,3.0,63,0.00,,,0.00,,2013-01-09 01:22:00,
2013-01-08 20:33:00,30.0,19.0,30.23,ESE,112,1.0,3.0,63,0.00,,,0.00,,2013-01-09 01:33:00,
2013-01-08 20:42:00,30.0,19.0,30.23,ESE,112,1.0,3.0,63,0.00,,,0.00,,2013-01-09 01:42:00,
2013-01-08 20:52:00,30.0,19.0,30.23,ESE,112,0.0,0.0,63,0.00,,,0.00,,2013-01-09 01:52:00,
2013-01-08 21:02:00,30.0,19.0,30.23,ESE,112,0.0,3.0,64,0.00,,,0.00,,2013-01-09 02:02:00,
2013-01-08 21:12:00,30.0,19.0,30.23,ESE,112,0.0,3.0,64,0.00,,,0.00,,2013-01-09 02:12:00,
2013-01-08 21:22:00,30.0,19.0,30.24,SSE,150,2.0,4.0,64,0.00,,,0.00,,2013-01-09 02:22:00,
2013-01-08 21:33:00,30.0,19.0,30.23,ESE,112,0.0,0.0,63,0.00,,,0.00,,2013-01-09 02:33:00,
2013-01-08 21:43:00,30.0,19.0,30.23,ESE,112,0.0,0.0,63,0.00,,,0.00,,2013-01-09 02:43:00,
2013-01-08 21:53:00,29.0,18.0,30.24,ESE,112,0.0,3.0,63,0.00,,,0.00,,2013-01-09 02:53:00,
2013-01-08 22:03:00,29.0,18.0,30.24,ESE,112,0.0,4.0,64,0.00,,,0.00,,2013-01-09 03:03:00,
2013-01-08 22:12:00,29.0,18.0,30.24,ESE,112,0.0,4.0,64,0.00,,,0.00,,2013-01-09 03:12:00,
2013-01-08 22:22:00,28.0,17.0,30.24,SE,135,0.0,3.0,64,0.00,,,0.00,,2013-01-09 03:22:00,
2013-01-08 22:33:00,27.0,16.0,30.24,East,90,0.0,3.0,64,0.00,,,0.00,,2013-01-09 03:33:00,
2013-01-08 22:43:00,27.0,16.0,30.24,East,90,0.0,3.0,64,0.00,,,0.00,,2013-01-09 03:43:00,
2013-01-08 22:53:00,27.0,17.0,30.24,SE,135,0.0,3.0,65,0.00,,,0.00,,2013-01-09 03:53:00,
2013-01-08 23:02:00,28.0,18.0,30.25,SE,130,2.0,7.0,66,0.00,,,0.00,,2013-01-09 04:02:00,
2013-01-08 23:12:00,28.0,18.0,30.25,SE,130,2.0,7.0,66,0.00,,,0.00,,2013-01-09 04:12:00,
2013-01-08 23:22:00,28.0,18.0,30.24,SSE,161,2.0,5.0,65,0.00,,,0.00,,2013-01-09 04:22:00,
2013-01-08 23:32:00,30.0,20.0,30.25,SSE,157,2.0,6.0,65,0.00,,,0.00,,2013-01-09 04:32:00,
2013-01-08 23:42:00,30.0,19.0,30.25,SE,137,2.0,4.0,64,0.00,,,0.00,,2013-01-09 04:42:00,
2013-01-08 23:52:00,30.0,19.0,30.25,SE,137,2.0,4.0,64,0.00,,,0.00,,2013-01-09 04:52:00,